Home   Weather   Palermo   Past weeks

Flag for Italy Past Weather in Palermo, Italy — Yesterday and Last 2 Weeks

Now
75 °F

Passing clouds.


Feels Like: 78 °F
Forecast: 68 / 75 °F
Wind: 15 mph from Northeast

Location: Palermo / Punta Raisi

Current Time: Sep 27, 2016 at 4:05:39 PM

Latest Report: Sep 27, 2016 at 3:20 PM


Visibility: N/A

Pressure: 30.15 "Hg

Humidity: 57%

Dew Point: 59 °F

Location of PalermoLocation

Past Weather in Palermo — Graph

°F

Palermo Temperature Yesterday

Maximum temperature yesterday: 75 °F (at 10:50 AM)
Minimum temperature yesterday: 68 °F (at 10:50 PM)
Average temperature yesterday: 72 °F

High & Low Weather Summary for the Past Weeks

 TemperatureHumidityPressure
High86 °F (Sep 16, 2:50 PM)94% (Sep 21, 12:50 PM)30.24 "Hg (Sep 21, 12:50 PM)
Low66 °F (Sep 21, 12:50 PM)49% (Sep 16, 2:50 PM)29.89 "Hg (Sep 19, 6:20 AM)
Average74 °F69%30.05 "Hg
* Reported Sep 12 2:20 PM — Sep 27 2:50 PM, Palermo, Weather by CustomWeather, © 2016

Note: Actual official high and low records may vary slightly from our data, if they occured in-between our weather recording intervals... More about our weather records

Advertising

Palermo Weather History for the Previous 24 Hours

Scroll right to see more
 ConditionsComfort  
Time TempWeatherWind HumidityBarometerVisibility
2:50 PM
Tue, Sep 27
75 °FPassing clouds.14 mph61%30.15 "HgN/A
2:20 PM75 °FPassing clouds.13 mph65%30.18 "HgN/A
1:50 PM75 °FPassing clouds.12 mph65%30.18 "HgN/A
1:20 PM75 °FSunny.12 mph65%30.18 "Hg10 mi
12:50 PM75 °FSunny.8 mph61%30.18 "Hg10 mi
12:20 PM73 °FPassing clouds.8 mph69%30.18 "HgN/A
11:50 AM73 °FPassing clouds.5 mph69%30.18 "HgN/A
11:20 AM73 °FPassing clouds.5 mph69%30.18 "HgN/A
10:50 AM72 °FPassing clouds.5 mph69%30.18 "HgN/A
10:20 AM72 °FPassing clouds.3 mph69%30.18 "HgN/A
9:50 AM72 °FPassing clouds.3 mph73%30.18 "HgN/A
9:20 AM70 °FPassing clouds.6 mph78%30.15 "HgN/A
8:50 AM72 °FPassing clouds.2 mph73%30.15 "HgN/A
8:20 AM68 °FPassing clouds.5 mph83%30.15 "HgN/A
7:50 AM68 °FScattered clouds.3 mph78%30.12 "HgN/A
7:20 AM66 °FPassing clouds.3 mph83%30.12 "HgN/A
6:50 AM66 °FPassing clouds.2 mph83%30.12 "HgN/A
6:20 AM66 °FPassing clouds.5 mph83%30.12 "HgN/A
5:50 AM68 °FRain. Passing clouds.13 mph78%30.12 "Hg4 mi
5:20 AM66 °FPassing clouds.5 mph78%30.12 "HgN/A
4:50 AM66 °FClear.8 mph73%30.12 "Hg10 mi
4:20 AM66 °FClear.7 mph73%30.12 "Hg10 mi
2:20 AM66 °FClear.7 mph78%30.12 "Hg10 mi
1:20 AM66 °FClear.5 mph78%30.12 "Hg10 mi
12:50 AM68 °FClear.7 mph73%30.12 "Hg10 mi
12:20 AM66 °FClear.7 mph78%30.12 "Hg10 mi
11:50 PM
Mon, Sep 26
68 °FClear.6 mph73%30.12 "Hg10 mi
11:20 PM68 °FClear.7 mph73%30.12 "Hg10 mi
10:50 PM68 °FClear.5 mph73%30.12 "Hg10 mi
10:20 PM70 °FPassing clouds.7 mph69%30.12 "HgN/A
9:50 PM70 °FPassing clouds.2 mph69%30.12 "HgN/A
9:20 PM72 °FPassing clouds.3 mph65%30.12 "HgN/A
8:50 PM73 °FClear.6 mph61%30.12 "Hg10 mi
8:20 PM73 °FPassing clouds.6 mph61%30.12 "HgN/A
7:50 PM73 °FPassing clouds.6 mph61%30.09 "HgN/A
7:20 PM73 °FPassing clouds.8 mph61%30.09 "HgN/A
6:50 PM73 °FScattered clouds.8 mph61%30.09 "HgN/A
6:20 PM73 °FScattered clouds.8 mph65%30.09 "HgN/A
5:50 PM75 °FScattered clouds.7 mph61%30.09 "HgN/A
5:20 PM75 °FScattered clouds.8 mph61%30.07 "HgN/A
4:50 PM75 °FScattered clouds.8 mph61%30.09 "HgN/A
4:20 PM75 °FScattered clouds.7 mph61%30.09 "HgN/A
Weather by CustomWeather, © 2016

See weather overviewHow to use our weather pages